When you browse on this site, cookies collect data to enhance your experience and personalize the content and advertising you see.
Visit our Privacy Policy to learn more. By continuing to use the site, you agree to this use of cookies and data.
  • In Romania
  • List of Countries
  • For 7 days
  • Water Temperature
  • Satellite Maps
  • Weather Map
  • Weather Widgets
  • user-avatar
    Login

    Hourly Weather Arosa

    Today, 19 July, Friday

    Time Temperature Precipitation Wind Pressure Humidity
    00:00 +7°C° 0 mm 1 mps 591 mmHg 84%
    01:00 +6°C° 0 mm 0 mps 592 mmHg 85%
    02:00 +6°C° 0 mm 0 mps 591 mmHg 85%
    03:00 +5°C° 0 mm 0 mps 591 mmHg 85%
    04:00 +5°C° 0 mm 0 mps 591 mmHg 85%
    05:00 +7°C° 0 mm 0 mps 592 mmHg 80%
    06:00 +8°C° 0 mm 0 mps 593 mmHg 75%
    07:00 +11°C° 0 mm 1 mps 594 mmHg 66%
    08:00 +13°C° 0 mm 1 mps 595 mmHg 61%
    09:00 +14°C° 0 mm 1 mps 595 mmHg 56%
    10:00 +15°C° 0 mm 1 mps 596 mmHg 51%
    11:00 +16°C° 0 mm 1 mps 596 mmHg 49%
    12:00 +18°C° 0 mm 1 mps 596 mmHg 47%
    13:00 +18°C° 0 mm 2 mps 597 mmHg 45%
    14:00 +18°C° 0.3 mm 2 mps 597 mmHg 49%
    15:00 +17°C° 0.3 mm 2 mps 596 mmHg 53%
    16:00 +17°C° 0.3 mm 2 mps 596 mmHg 57%
    17:00 +16°C° 0.5 mm 2 mps 596 mmHg 65%
    18:00 +15°C° 0.5 mm 1 mps 596 mmHg 74%
    19:00 +14°C° 0.5 mm 1 mps 595 mmHg 82%
    20:00 +12°C° 0.1 mm 1 mps 595 mmHg 86%
    21:00 +10°C° 0.1 mm 1 mps 594 mmHg 89%
    22:00 +9°C° 0.1 mm 1 mps 593 mmHg 93%
    23:00 +9°C° 0 mm 1 mps 593 mmHg 92%

    Tomorrow, 20 July, Saturday

    Time Temperature Precipitation Wind Pressure Humidity
    00:00 +9°C° 0 mm 1 mps 593 mmHg 92%
    01:00 +7°C° 0 mm 2 mps 593 mmHg 91%
    02:00 +7°C° 0 mm 2 mps 593 mmHg 90%
    03:00 +7°C° 0 mm 2 mps 593 mmHg 90%
    04:00 +7°C° 0 mm 2 mps 593 mmHg 90%
    05:00 +8°C° 0 mm 2 mps 594 mmHg 88%
    06:00 +10°C° 0 mm 2 mps 594 mmHg 86%
    07:00 +12°C° 0 mm 2 mps 595 mmHg 84%
    08:00 +13°C° 0 mm 2 mps 596 mmHg 76%
    09:00 +15°C° 0 mm 2 mps 596 mmHg 69%
    10:00 +17°C° 0 mm 2 mps 597 mmHg 61%
    11:00 +17°C° 0.5 mm 2 mps 597 mmHg 62%
    12:00 +17°C° 0.5 mm 2 mps 597 mmHg 63%
    13:00 +17°C° 0.5 mm 2 mps 597 mmHg 64%
    14:00 +17°C° 1.1 mm 2 mps 597 mmHg 65%
    15:00 +18°C° 1.1 mm 1 mps 597 mmHg 67%
    16:00 +18°C° 1.1 mm 1 mps 597 mmHg 68%
    17:00 +16°C° 1.2 mm 1 mps 597 mmHg 73%
    18:00 +15°C° 1.2 mm 1 mps 597 mmHg 77%
    19:00 +15°C° 1.2 mm 1 mps 597 mmHg 82%
    20:00 +13°C° 0.2 mm 1 mps 596 mmHg 83%
    21:00 +12°C° 0.2 mm 1 mps 596 mmHg 84%
    22:00 +11°C° 0.2 mm 1 mps 596 mmHg 86%
    23:00 +11°C° 0 mm 1 mps 596 mmHg 86%

    Day after tomorrow, 21 July, Sunday

    Time Temperature Precipitation Wind Pressure Humidity
    00:00 +11°C° 0 mm 1 mps 596 mmHg 86%
    01:00 +9°C° 0 mm 2 mps 596 mmHg 86%
    02:00 +10°C° 0 mm 1 mps 596 mmHg 86%
    03:00 +10°C° 0 mm 1 mps 596 mmHg 86%
    04:00 +10°C° 0 mm 1 mps 596 mmHg 85%
    05:00 +11°C° 0 mm 1 mps 596 mmHg 82%
    06:00 +11°C° 0 mm 0 mps 597 mmHg 79%
    07:00 +12°C° 0 mm 0 mps 598 mmHg 76%
    08:00 +14°C° 0.3 mm 1 mps 598 mmHg 74%
    09:00 +15°C° 0.3 mm 1 mps 599 mmHg 73%
    10:00 +16°C° 0.3 mm 2 mps 599 mmHg 71%
    11:00 +17°C° 0.6 mm 2 mps 599 mmHg 68%
    12:00 +17°C° 0.6 mm 2 mps 600 mmHg 66%
    13:00 +18°C° 0.6 mm 2 mps 600 mmHg 63%
    14:00 +18°C° 0.4 mm 2 mps 600 mmHg 63%
    15:00 +18°C° 0.4 mm 2 mps 600 mmHg 63%
    16:00 +18°C° 0.4 mm 3 mps 600 mmHg 64%
    17:00 +17°C° 0.3 mm 2 mps 600 mmHg 71%
    18:00 +16°C° 0.3 mm 2 mps 599 mmHg 78%
    19:00 +15°C° 0.3 mm 2 mps 599 mmHg 86%
    20:00 +13°C° 0.1 mm 1 mps 599 mmHg 88%
    21:00 +11°C° 0.1 mm 1 mps 598 mmHg 91%
    22:00 +9°C° 0.1 mm 0 mps 598 mmHg 94%
    23:00 +9°C° 0 mm 0 mps 598 mmHg 93%

    22 July, Monday

    Time Temperature Precipitation Wind Pressure Humidity
    00:00 +8°C° 0 mm 0 mps 597 mmHg 93%
    01:00 +8°C° 0 mm 0 mps 597 mmHg 92%
    02:00 +8°C° 0 mm 0 mps 597 mmHg 91%
    03:00 +8°C° 0 mm 0 mps 597 mmHg 90%
    04:00 +7°C° 0 mm 0 mps 597 mmHg 89%
    05:00 +9°C° 0 mm 0 mps 598 mmHg 84%
    06:00 +11°C° 0 mm 0 mps 599 mmHg 80%
    07:00 +12°C° 0 mm 0 mps 600 mmHg 76%
    08:00 +15°C° 0 mm 1 mps 600 mmHg 70%
    09:00 +18°C° 0 mm 1 mps 601 mmHg 65%
    10:00 +19°C° 0 mm 1 mps 602 mmHg 59%
    11:00 +20°C° 0 mm 1 mps 602 mmHg 56%
    12:00 +20°C° 0 mm 2 mps 602 mmHg 52%
    13:00 +21°C° 0 mm 2 mps 602 mmHg 48%
    14:00 +21°C° 0 mm 2 mps 602 mmHg 50%
    15:00 +21°C° 0 mm 2 mps 602 mmHg 51%
    16:00 +20°C° 0 mm 2 mps 602 mmHg 53%
    17:00 +19°C° 0.1 mm 2 mps 601 mmHg 62%
    18:00 +18°C° 0.1 mm 2 mps 601 mmHg 71%
    19:00 +17°C° 0.1 mm 2 mps 600 mmHg 80%
    20:00 +15°C° 0 mm 1 mps 600 mmHg 85%
    21:00 +13°C° 0 mm 1 mps 599 mmHg 91%
    22:00 +10°C° 0 mm 0 mps 598 mmHg 97%
    23:00 +10°C° 0 mm 0 mps 598 mmHg 96%

    23 July, Tuesday

    Time Temperature Precipitation Wind Pressure Humidity
    00:00 +9°C° 0 mm 0 mps 598 mmHg 96%
    01:00 +9°C° 0 mm 0 mps 597 mmHg 96%
    02:00 +9°C° 0 mm 0 mps 597 mmHg 95%
    03:00 +9°C° 0 mm 0 mps 597 mmHg 94%
    04:00 +8°C° 0 mm 0 mps 596 mmHg 93%
    05:00 +10°C° 0 mm 0 mps 597 mmHg 87%
    06:00 +12°C° 0 mm 0 mps 598 mmHg 81%
    07:00 +14°C° 0 mm 0 mps 599 mmHg 76%
    08:00 +16°C° 0 mm 0 mps 600 mmHg 66%
    09:00 +20°C° 0 mm 1 mps 601 mmHg 55%
    10:00 +21°C° 0 mm 1 mps 601 mmHg 45%
    11:00 +22°C° 0 mm 1 mps 601 mmHg 42%
    12:00 +23°C° 0 mm 1 mps 601 mmHg 39%
    13:00 +24°C° 0 mm 2 mps 602 mmHg 35%
    14:00 +24°C° 0 mm 2 mps 601 mmHg 38%
    15:00 +24°C° 0 mm 2 mps 601 mmHg 40%
    16:00 +24°C° 0 mm 2 mps 601 mmHg 42%
    17:00 +21°C° 0 mm 2 mps 600 mmHg 53%
    18:00 +19°C° 0 mm 2 mps 600 mmHg 65%
    19:00 +19°C° 0 mm 1 mps 599 mmHg 76%
    20:00 +16°C° 0 mm 1 mps 598 mmHg 81%
    21:00 +14°C° 0 mm 1 mps 598 mmHg 86%
    22:00 +12°C° 0 mm 0 mps 597 mmHg 92%
    23:00 +12°C° 0 mm 1 mps 597 mmHg 91%

    24 July, Wednesday

    Time Temperature Precipitation Wind Pressure Humidity
    00:00 +12°C° 0 mm 1 mps 597 mmHg 91%
    01:00 +12°C° 0 mm 1 mps 597 mmHg 91%
    02:00 +12°C° 0 mm 1 mps 596 mmHg 91%
    03:00 +12°C° 0 mm 1 mps 596 mmHg 91%
    04:00 +11°C° 0 mm 1 mps 596 mmHg 90%
    05:00 +13°C° 0 mm 1 mps 597 mmHg 85%
    06:00 +15°C° 0 mm 1 mps 598 mmHg 79%
    07:00 +15°C° 0 mm 0 mps 599 mmHg 73%
    08:00 +19°C° 0 mm 1 mps 599 mmHg 65%
    09:00 +21°C° 0 mm 1 mps 600 mmHg 56%
    10:00 +22°C° 0 mm 1 mps 601 mmHg 47%
    11:00 +23°C° 0 mm 1 mps 601 mmHg 44%
    12:00 +24°C° 0 mm 1 mps 601 mmHg 41%
    13:00 +25°C° 0 mm 2 mps 601 mmHg 38%
    14:00 +24°C° 0.1 mm 2 mps 601 mmHg 41%
    15:00 +24°C° 0.1 mm 2 mps 601 mmHg 44%
    16:00 +24°C° 0.1 mm 2 mps 601 mmHg 47%
    17:00 +23°C° 0.5 mm 2 mps 600 mmHg 58%
    18:00 +21°C° 0.5 mm 1 mps 599 mmHg 69%
    19:00 +19°C° 0.5 mm 1 mps 599 mmHg 80%
    20:00 +18°C° 0.4 mm 1 mps 598 mmHg 83%
    21:00 +15°C° 0.4 mm 0 mps 598 mmHg 85%
    22:00 +13°C° 0.4 mm 0 mps 597 mmHg 88%
    23:00 +13°C° 0.3 mm 0 mps 597 mmHg 88%
    Show more